Location: Newark
(43.5831°N, 21.3381°E)
Time: 06:44:17
(UTC+00:00)

Envisat - Pass Details

Date: 12 December 2019
Orbit: 764 x 766 km, 98.1° (Epoch: 20 January)

Event Time Altitude Azimuth Distance (km) Brightness Sun altitude
Rises 16:20:40 0° 162° (SSE) 3,219 6.2 -14.4°
Reaches altitude 10° 16:22:57 10° 161° (SSE) 2,297 5.5 -14.8°
Maximum altitude 16:28:01 81° 75° (ENE) 781 2.9 -15.6°
Drops below altitude 10° 16:33:07 10° 349° (N) 2,314 5.4 -16.5°
Sets 16:35:26 0° 348° (NNW) 3,244 6.2 -16.9°
